Theta_e
336 333 329 328 325 324 319 317 303 311 307 303 303 304 303 310 310 308 309 310 311 317 318 321 321 318 315 316 317 317 321 316 317 310 314 326 337 339 337 331 330 335 335 337 342 344 345 346 344 346 347 347 347 347 346 346 346 346 347 344 341 340 340 341 342 342 342 342 342 342 344 344 343 344 344 344 344 344 344 344 344 344 344 345 345 346 346 345 345 345 345 345 344 344 343 342 342
330 327 327 328 324 321 313 314 306 305 305 301 303 304 305 309 308 308 306 311 312 315 319 321 321 321 319 320 320 318 320 322 325 324 329 333 336 337 335 329 330 334 335 336 339 342 344 344 343 344 347 347 347 347 346 343 346 346 346 344 342 340 342 342 342 342 342 343 343 342 342 343 344 344 343 344 343 344 343 344 344 343 344 345 345 345 345 345 344 344 344 344 343 343 342 341 341
326 326 324 326 322 319 314 312 301 303 301 299 302 305 308 305 307 309 311 314 316 318 320 320 321 319 317 316 315 316 314 328 329 329 327 335 331 333 333 329 333 335 335 336 340 342 342 342 342 343 344 345 344 345 344 341 341 344 344 343 341 341 340 341 341 340 341 342 342 343 343 343 344 343 344 344 344 344 344 344 344 343 345 344 345 345 345 345 344 344 343 343 343 341 342 341 340
328 330 322 322 314 319 309 308 304 302 300 301 301 305 306 307 308 313 316 318 318 319 320 318 315 322 319 313 316 319 321 324 331 329 326 329 331 334 333 330 336 336 336 336 337 342 342 341 342 344 343 342 343 341 342 343 341 341 341 340 338 341 342 340 342 343 344 343 342 342 343 343 342 342 343 343 342 343 342 342 343 343 344 345 345 345 345 344 344 344 343 343 342 341 341 340 339
327 327 324 320 315 311 309 306 304 304 299 302 300 306 306 309 311 313 316 319 319 319 319 318 317 322 323 318 319 316 322 327 331 333 330 334 336 335 332 331 334 335 335 335 337 342 341 341 343 343 342 342 341 340 343 345 344 343 342 339 338 341 339 341 342 342 341 341 341 341 342 342 342 342 342 342 344 344 344 344 343 343 343 344 344 344 344 344 343 343 342 342 342 340 340 340 339
321 322 328 321 313 316 309 301 301 300 305 305 303 305 307 310 311 315 315 317 318 320 320 317 317 316 315 320 324 322 329 322 329 332 334 333 334 336 332 332 333 333 335 336 338 340 342 341 343 342 338 339 340 341 344 345 346 344 341 338 340 342 340 341 341 341 341 343 344 343 343 343 342 342 342 342 343 343 344 344 343 343 343 343 343 343 342 343 342 342 342 341 341 340 339 338 337
321 321 320 319 316 316 305 302 302 303 304 307 305 305 308 310 313 315 315 315 317 318 318 318 319 316 314 322 323 329 333 334 332 332 336 336 336 335 331 330 332 333 335 337 338 340 343 341 344 343 343 342 340 341 342 343 345 346 343 343 345 343 342 342 342 342 342 343 343 343 342 342 342 342 342 341 341 342 342 342 342 342 342 342 342 343 343 343 342 342 341 341 340 340 339 337 337
325 315 317 311 310 310 304 303 303 305 304 308 306 306 309 312 315 313 313 312 312 313 316 320 319 317 318 324 318 327 332 335 336 337 337 335 335 333 331 330 332 332 334 337 337 341 344 341 344 344 343 342 342 340 344 345 345 345 344 344 344 344 343 342 342 342 341 342 341 341 341 341 341 340 340 340 341 341 341 340 341 342 342 342 341 341 341 341 341 340 340 341 340 338 337 336 336
321 318 321 311 307 311 306 302 302 307 306 307 307 307 311 314 315 313 312 314 315 316 316 318 320 313 315 316 323 327 331 335 337 336 336 335 333 332 330 331 332 332 334 336 340 342 343 339 342 343 343 343 342 340 343 343 344 345 344 343 343 342 341 341 341 341 341 341 341 340 340 340 340 340 340 340 340 340 340 340 340 340 341 341 341 341 341 341 340 340 340 340 338 337 336 335 334
317 317 311 311 312 305 306 305 301 304 305 307 307 307 308 313 314 314 313 310 313 313 316 320 320 314 316 315 319 327 330 335 336 335 335 334 333 331 331 332 333 333 334 336 338 339 341 344 339 341 342 343 344 340 339 341 344 343 343 342 341 340 340 340 339 340 340 339 339 339 339 339 340 340 340 340 340 340 340 340 340 341 341 341 341 340 340 340 340 339 339 339 337 336 336 335 334
312 316 318 309 306 304 305 305 302 305 305 307 307 309 309 313 315 313 314 313 315 314 319 320 316 315 314 318 325 332 334 335 334 331 334 334 331 331 330 332 333 334 334 336 337 339 341 341 342 337 340 340 342 342 342 340 339 340 340 340 340 339 339 338 338 338 337 338 339 341 342 341 341 340 340 340 339 340 340 340 340 341 341 341 340 340 340 340 340 340 339 338 336 336 335 335 335
309 310 313 306 305 306 308 307 302 304 306 307 305 308 310 312 315 312 313 311 313 314 316 318 314 317 312 316 323 329 331 333 334 334 334 334 329 330 331 333 334 334 336 336 338 340 340 341 340 343 335 337 338 340 341 341 340 340 341 341 339 339 339 337 337 338 343 342 342 342 341 341 341 340 340 340 341 340 339 340 340 341 341 341 341 340 340 339 339 338 337 337 336 335 335 335 334
312 315 309 307 307 308 307 304 304 303 304 304 307 309 311 312 312 312 312 312 313 312 313 319 320 316 310 312 327 330 328 332 334 335 335 332 330 331 332 333 333 335 334 336 336 339 340 339 338 338 337 331 333 335 336 338 340 340 340 341 341 341 341 341 342 340 342 342 341 340 340 340 340 340 340 340 340 341 340 340 339 340 340 340 339 339 339 338 338 337 337 336 335 335 335 334 333
313 314 311 305 310 307 306 308 306 301 301 307 311 310 310 311 314 314 314 310 311 311 318 321 317 316 314 318 322 325 329 334 334 335 334 332 330 331 331 331 334 334 335 335 334 337 340 338 337 338 339 339 339 336 332 335 338 340 341 341 341 341 341 342 342 341 341 340 340 339 339 338 339 338 337 338 337 337 339 339 339 338 339 339 339 339 338 337 336 336 337 336 336 335 334 334 334
312 317 310 308 307 307 308 305 307 302 302 308 309 310 310 314 315 315 314 310 312 319 320 324 321 313 309 310 315 324 330 334 335 334 333 332 331 330 332 332 333 333 333 332 334 335 338 339 337 339 338 337 337 337 338 341 333 336 337 338 339 339 338 338 338 338 337 337 337 336 335 333 332 333 332 333 335 334 333 332 336 338 337 338 338 337 336 335 335 336 336 336 336 335 334 333 332
318 313 310 306 304 304 307 307 307 303 303 309 308 312 311 312 315 313 314 315 314 320 318 314 322 314 315 313 322 329 332 333 334 333 332 330 330 330 331 330 330 331 331 332 333 335 336 339 339 339 337 337 337 337 338 338 333 331 335 336 336 336 335 334 334 333 331 330 330 331 330 333 331 333 328 333 329 331 329 332 332 337 337 336 336 336 335 335 334 334 334 334 334 334 333 332 331
316 314 306 305 303 305 308 307 307 303 305 308 310 310 309 308 313 314 314 316 313 314 315 320 317 321 321 323 331 333 333 333 332 331 330 328 327 326 328 328 328 329 330 331 331 333 334 336 337 337 338 337 337 338 337 338 339 330 331 329 330 331 332 331 328 324 323 323 326 326 328 335 335 334 336 335 328 330 322 325 331 335 335 335 335 335 335 334 334 333 332 332 331 331 328 326 327
313 306 306 304 307 306 310 309 310 308 304 306 309 310 310 307 311 312 315 313 313 315 314 320 322 319 326 323 333 334 333 331 331 328 326 325 324 323 323 325 327 326 328 329 330 331 331 333 336 336 337 339 338 337 338 338 339 335 337 337 338 334 329 327 333 337 336 337 327 333 337 333 332 333 335 335 335 334 328 322 326 331 333 333 334 334 333 332 332 332 332 331 330 328 324 331 327
308 308 307 305 309 311 314 313 311 308 305 306 308 311 311 311 311 312 310 310 312 312 313 318 316 320 323 323 332 331 331 330 329 328 325 323 322 322 322 324 325 326 326 327 329 329 330 331 334 333 335 338 338 339 339 339 337 337 337 336 336 331 335 336 335 334 336 336 335 335 331 332 332 332 334 333 329 321 325 322 324 327 328 329 330 331 331 330 329 330 329 329 329 328 333 333 331
310 308 306 308 314 308 309 309 307 308 307 305 306 309 311 312 311 314 309 310 311 310 310 313 314 316 320 323 330 330 329 328 329 328 325 323 322 322 323 323 324 326 326 327 328 330 330 330 332 332 334 336 336 336 338 338 336 336 335 335 334 333 334 335 333 334 333 334 335 333 331 333 333 333 327 327 328 332 325 319 319 320 320 322 324 328 327 327 327 325 325 325 328 331 331 330 330
312 307 306 310 314 307 307 308 307 306 307 305 305 307 308 312 312 311 310 308 309 311 313 314 313 316 320 324 328 329 328 328 328 329 326 324 324 324 324 324 323 326 328 328 329 328 329 330 330 331 334 335 335 335 336 335 336 335 335 334 333 333 333 332 332 333 333 333 332 331 331 333 332 331 331 332 332 331 332 332 332 333 333 331 320 332 332 331 328 332 330 327 332 331 330 330 330
314 309 312 312 310 309 309 307 306 305 305 305 305 304 306 313 311 310 310 307 307 311 314 314 315 316 323 324 327 328 327 327 328 328 328 325 323 323 323 325 325 327 328 327 328 328 329 330 330 330 331 333 334 333 334 334 335 334 334 333 332 332 334 332 333 333 333 332 332 332 330 330 330 330 330 330 330 330 329 329 329 329 330 330 329 329 330 331 331 330 331 330 330 330 331 330 330
306 310 312 310 309 309 306 306 303 304 304 304 304 306 308 307 307 310 311 310 311 312 314 316 316 317 327 327 328 326 327 327 328 328 329 328 325 325 323 324 323 325 327 327 328 328 329 330 330 330 329 331 332 333 333 333 334 334 333 333 332 331 332 332 332 332 332 333 333 332 330 330 329 329 329 329 328 329 329 329 328 328 328 329 329 329 329 329 329 329 329 329 329 330 330 330 330
311 310 311 311 309 308 306 304 303 304 304 305 307 307 304 305 303 309 309 312 314 313 315 314 317 321 328 326 327 326 327 328 328 329 330 330 329 327 324 323 324 327 327 327 328 328 329 329 330 330 330 330 330 332 331 331 332 332 332 332 333 329 331 332 332 331 332 333 333 332 330 330 329 328 328 328 328 328 328 329 329 328 329 329 330 329 329 329 328 329 329 329 329 329 328 329 329
309 310 308 307 307 304 305 304 303 303 304 305 305 303 304 306 305 307 306 309 312 314 314 312 316 321 325 325 326 327 327 329 329 330 331 332 333 331 328 326 326 327 326 326 328 328 329 329 330 330 330 330 330 330 329 330 330 330 331 331 331 328 330 332 333 333 333 332 332 333 330 329 329 328 328 328 329 327 328 328 327 327 328 329 329 327 328 329 329 329 329 328 329 329 328 328 328
311 313 314 307 305 305 304 303 303 303 304 304 303 303 305 306 305 303 307 309 311 314 313 313 317 321 323 323 326 326 327 328 329 329 330 332 333 331 329 326 326 324 326 327 328 328 329 329 329 329 330 331 331 330 330 330 330 330 330 331 330 330 330 331 333 332 333 332 331 332 331 331 330 328 328 328 328 327 328 327 327 327 327 327 327 326 325 328 329 329 330 330 329 328 326 327 324
314 314 313 307 306 305 305 304 304 303 303 303 302 303 304 305 303 302 309 310 311 313 312 314 314 317 320 321 324 326 327 327 328 330 330 331 331 331 329 328 326 325 326 326 328 329 329 329 329 330 330 331 332 330 330 330 330 330 331 331 332 331 331 331 331 332 332 333 333 333 332 331 331 330 329 329 329 329 328 328 327 327 326 326 326 325 327 327 329 330 329 328 327 326 324 324 322
310 313 310 308 307 305 305 304 303 303 302 303 303 303 304 303 303 302 308 310 310 311 311 314 313 314 317 320 323 326 326 328 329 330 328 328 329 330 330 328 327 326 326 327 328 329 329 329 329 330 330 331 331 330 330 330 330 330 331 331 332 332 332 331 331 331 331 332 334 334 333 331 331 331 332 331 331 330 329 328 329 328 327 327 326 326 326 326 327 328 330 329 329 325 323 325 326
309 310 304 306 306 304 305 303 304 303 303 304 304 302 300 301 300 305 308 309 310 311 312 314 313 313 316 320 323 325 326 327 329 329 329 330 330 331 330 331 330 327 328 328 328 329 328 329 329 329 330 331 330 330 330 330 331 331 331 331 332 333 332 331 330 330 330 331 333 333 333 332 331 332 332 332 331 330 330 329 329 329 329 328 326 327 327 327 325 326 326 327 324 325 324 326 328
308 308 308 307 305 304 308 307 307 303 305 305 305 297 301 302 303 306 308 309 310 309 311 313 313 313 315 318 322 324 326 327 328 329 330 330 330 331 330 332 332 331 330 329 329 328 328 329 329 330 330 331 331 330 330 330 330 331 331 332 332 332 332 331 330 331 331 331 332 333 333 333 332 332 333 332 331 330 331 330 330 329 330 330 329 329 327 327 326 325 325 325 323 324 325 327 326
304 307 307 304 301 302 311 309 307 302 306 304 306 299 305 311 308 307 308 309 308 308 310 312 313 313 315 319 321 322 325 327 328 330 331 331 331 332 331 332 333 333 332 332 329 329 329 329 329 330 330 331 330 330 330 331 331 331 331 332 332 332 331 331 331 331 331 331 331 331 332 332 332 333 333 332 331 331 330 330 329 330 331 331 330 329 329 328 328 328 327 326 327 326 327 327 326
306 300 298 303 301 305 310 311 304 303 301 304 303 301 304 310 313 307 308 309 309 307 308 310 312 313 316 319 321 321 323 327 328 329 330 331 331 331 332 331 332 332 332 333 332 331 330 330 329 329 330 330 330 330 331 332 332 332 332 328 331 332 330 330 331 332 332 332 331 332 332 332 332 333 333 333 331 331 330 330 330 331 331 330 330 330 329 329 328 329 329 328 326 326 326 326 326
304 300 301 300 302 302 301 305 306 308 302 302 303 302 306 307 311 306 307 307 308 306 307 309 310 313 315 317 318 319 321 323 327 328 329 331 332 332 332 332 332 333 333 333 333 332 331 331 329 329 330 329 330 330 331 332 332 332 331 330 331 332 331 330 331 332 332 332 331 331 333 332 332 334 333 334 332 332 331 330 331 332 332 330 329 329 329 329 328 329 328 328 328 325 326 325 326
298 301 299 303 299 302 300 302 304 306 302 297 301 300 304 306 304 303 304 306 306 305 306 307 309 312 315 317 318 318 319 321 324 326 327 330 332 332 333 330 333 334 334 333 334 333 332 332 331 330 331 330 330 330 330 331 332 332 331 331 330 331 332 331 331 332 332 331 332 331 332 333 332 333 334 334 333 332 332 331 332 332 332 330 329 329 329 329 329 328 327 328 327 326 325 324 324
297 298 298 300 301 303 301 298 301 302 301 300 299 298 300 304 306 305 303 304 306 306 306 307 308 310 313 316 317 318 319 320 322 326 328 329 331 332 332 333 333 333 333 333 334 334 334 333 332 331 331 331 330 331 331 331 331 331 331 331 331 331 331 331 331 331 331 331 331 332 332 333 332 333 333 333 332 331 330 331 331 332 332 330 329 328 328 328 328 328 327 326 327 327 325 324 324
300 300 300 301 299 300 301 301 301 302 299 299 300 298 299 302 305 308 306 303 304 304 306 306 307 308 308 311 314 315 317 319 323 326 329 329 330 331 331 332 333 333 333 333 333 334 333 333 333 333 332 332 331 331 331 330 330 329 328 329 330 329 330 329 331 331 332 331 332 332 332 333 333 332 333 333 332 330 330 330 331 332 332 330 328 327 327 327 327 327 327 326 326 326 326 325 325
303 302 301 301 301 302 304 301 301 302 299 298 300 301 301 302 305 307 309 306 305 304 304 305 305 305 306 307 309 312 314 317 323 325 327 329 330 331 331 332 332 332 332 332 332 332 333 332 332 331 332 332 332 331 330 329 327 328 328 328 328 329 329 330 329 330 331 331 333 333 333 333 334 333 332 332 331 328 330 330 331 331 331 330 328 328 328 327 327 327 326 326 325 324 324 325 325
303 302 301 300 302 300 304 302 301 301 299 300 301 300 301 302 304 305 307 306 303 304 304 304 305 306 307 307 307 309 311 316 321 323 325 328 329 330 331 332 329 330 331 332 331 332 332 333 332 332 332 331 331 331 331 330 329 329 328 328 329 329 329 328 328 329 330 331 332 334 334 334 334 334 332 332 331 330 329 330 330 330 330 330 329 329 328 325 327 327 327 324 326 323 321 323 324
304 302 301 300 301 304 302 302 302 301 300 300 304 302 302 304 305 306 306 305 306 306 306 306 305 306 306 307 308 309 311 313 317 320 324 325 328 330 330 331 331 331 331 331 332 332 332 332 332 332 332 331 331 332 332 331 332 331 331 331 330 330 332 332 331 330 331 330 332 333 334 334 334 334 333 331 331 331 330 329 329 330 330 330 328 328 328 328 328 327 327 324 323 324 322 324 323
302 302 300 299 303 301 298 299 302 300 302 301 300 298 300 303 305 306 309 309 307 308 307 307 307 306 306 307 308 309 309 311 312 314 317 321 325 327 329 329 330 330 330 330 330 330 331 331 332 332 332 332 332 331 330 333 333 333 333 333 333 332 331 332 333 332 331 330 330 332 333 334 334 334 334 332 330 330 330 329 330 330 330 330 329 328 327 327 327 327 327 326 324 321 321 321 324
303 303 301 301 302 303 302 298 299 298 300 299 299 299 300 303 302 304 308 310 309 307 307 306 307 308 308 310 310 310 308 309 311 311 312 315 319 323 326 327 329 329 329 329 330 330 330 331 332 332 332 332 332 331 331 332 333 332 333 333 334 333 333 332 332 330 330 330 330 331 331 333 334 334 334 333 330 330 330 330 330 330 330 329 329 328 328 328 328 327 327 325 324 321 319 320 322
301 304 303 303 304 303 301 299 298 298 298 298 299 293 295 303 304 304 307 308 307 308 305 304 305 306 306 306 307 309 312 312 311 311 311 312 317 321 324 326 327 328 328 329 330 330 330 331 331 332 332 333 332 333 332 331 331 330 330 329 327 328 327 328 327 328 329 329 329 331 332 333 333 333 334 334 333 330 331 332 332 331 330 329 329 329 329 328 328 327 327 326 325 324 321 320 320
299 300 305 305 304 304 303 299 300 296 294 296 297 292 291 301 301 304 306 307 307 308 306 306 306 306 306 306 307 307 309 310 311 311 312 312 314 318 321 324 326 326 328 330 331 330 331 331 332 332 332 332 334 333 333 331 330 330 330 329 329 328 327 328 331 331 331 332 332 332 332 333 333 332 332 333 333 332 331 331 331 331 331 331 330 330 328 328 327 328 328 327 326 325 324 320 320
298 306 305 305 303 302 302 301 301 299 302 298 295 296 290 291 298 304 305 303 304 306 306 305 307 308 306 306 307 307 308 309 311 311 310 311 312 314 316 320 324 326 328 329 330 330 331 331 332 332 332 332 333 334 333 332 330 330 330 329 329 329 328 329 331 331 332 331 330 331 331 332 333 333 332 331 332 332 331 331 331 331 330 331 329 329 329 328 328 329 328 328 327 325 324 322 321
301 303 305 303 303 304 303 301 300 300 294 291 295 297 290 290 297 302 303 300 302 302 304 306 306 308 309 307 307 308 308 310 311 313 312 311 311 312 313 315 321 324 326 327 328 330 331 332 331 332 332 332 332 334 333 332 330 330 329 329 328 329 330 330 331 331 331 331 329 330 331 331 332 332 332 331 331 331 330 330 331 331 330 330 329 329 329 329 328 327 327 326 326 325 325 324 323
298 304 306 304 303 302 301 300 298 296 291 288 295 296 288 290 298 300 301 299 300 302 304 305 307 307 307 308 307 307 309 311 311 311 313 314 313 312 313 313 316 320 325 328 329 330 330 331 331 330 331 332 332 333 332 332 331 330 330 329 328 328 328 329 330 329 329 329 329 329 329 330 331 331 331 331 331 331 331 330 330 330 330 330 327 329 329 329 329 328 327 327 326 326 325 324 323
302 302 298 297 298 297 297 298 294 292 287 289 295 297 293 287 296 298 299 298 300 302 304 306 308 308 308 308 308 308 308 309 313 312 311 313 314 313 312 311 312 315 321 324 326 327 329 329 330 329 330 331 332 331 332 331 332 331 329 329 329 328 329 328 327 327 328 328 327 327 328 329 330 330 330 330 331 331 331 329 329 329 329 328 327 328 328 329 329 329 329 328 327 325 324 324 323
301 298 295 295 293 295 293 291 292 286 285 292 296 296 295 285 292 299 303 306 303 303 303 305 306 308 308 308 308 309 309 309 311 312 311 311 311 311 311 310 310 311 316 318 320 323 325 327 328 327 328 329 330 331 331 331 330 331 330 330 329 329 329 328 327 326 326 327 327 327 328 328 328 330 330 330 330 330 330 329 328 328 327 328 327 327 327 327 327 328 327 326 325 325 325 324 323
300 299 297 291 287 288 285 287 282 284 285 287 289 295 290 289 295 300 302 303 302 303 305 305 306 307 309 309 308 309 311 310 311 314 312 311 309 308 308 308 308 309 310 311 313 317 319 322 324 324 326 328 329 330 330 330 330 330 330 329 329 329 329 329 328 327 328 327 327 327 327 327 327 327 328 328 329 330 330 329 328 327 327 327 327 326 326 327 326 326 326 325 325 324 324 324 323
298 296 294 290 285 283 281 284 286 287 291 290 290 292 287 293 296 301 301 304 306 304 305 305 305 305 306 308 310 309 312 310 309 309 310 310 309 309 308 307 307 308 308 309 310 312 315 317 320 321 322 325 327 328 329 329 329 330 330 330 329 329 328 329 329 328 328 328 328 328 328 327 327 327 328 328 329 329 329 329 328 328 328 328 328 328 327 327 326 326 326 325 324 324 324 324 323
297 302 297 292 289 285 282 285 282 284 288 287 292 288 287 289 294 298 301 304 305 305 303 305 305 306 306 305 305 304 304 304 307 307 307 307 309 310 310 310 309 309 309 309 309 309 311 311 314 316 318 320 323 325 327 327 328 329 329 329 329 328 327 328 328 329 328 328 328 328 328 328 327 328 328 329 329 329 329 329 329 329 329 329 328 327 327 326 326 326 325 324 324 324 323 323 322
298 299 301 294 290 296 288 289 289 288 286 284 285 287 294 295 302 302 302 301 301 302 302 302 302 302 304 303 302 302 303 304 306 306 308 309 311 310 310 310 310 310 309 309 309 309 310 310 312 313 314 317 319 322 324 326 327 328 328 327 327 327 326 327 327 327 328 329 328 327 327 327 327 328 329 329 330 329 329 329 329 329 329 329 329 328 327 326 326 325 324 324 323 323 323 321 320
292 295 290 294 298 297 291 286 287 287 287 285 290 288 292 298 299 302 302 301 301 301 301 300 301 302 304 304 304 304 305 306 307 310 311 311 310 309 309 309 309 309 309 309 309 309 308 309 310 311 312 314 317 320 323 324 325 326 327 327 327 326 326 326 325 326 326 327 328 328 327 327 327 328 328 330 329 329 329 329 329 329 329 329 328 327 327 326 325 324 323 322 322 322 321 320 319
296 289 294 299 301 299 292 286 286 285 284 286 291 287 290 291 288 302 301 300 301 300 300 300 301 302 302 305 306 306 306 308 309 310 311 310 309 308 309 309 309 310 310 310 310 310 309 309 309 310 311 312 315 317 320 322 323 323 324 325 326 326 326 326 326 326 327 327 327 327 328 327 326 327 328 330 329 329 329 325 329 328 328 328 327 327 326 325 324 323 322 322 321 320 319 318 317
296 294 302 293 286 286 290 289 283 282 282 285 289 291 290 292 293 296 297 299 300 301 302 301 300 300 302 304 305 305 307 309 308 307 306 306 306 306 306 307 308 308 308 309 310 310 310 309 309 310 310 312 314 316 318 320 322 323 324 324 325 325 325 326 326 327 327 326 327 327 327 328 328 327 327 328 328 328 328 327 327 326 326 326 326 325 325 324 323 322 320 319 318 318 317 315 315
297 300 297 301 297 292 289 289 289 289 284 284 285 288 286 295 295 298 299 299 300 301 301 301 301 301 301 303 304 306 309 308 307 307 307 307 307 306 305 306 307 308 308 308 308 309 309 309 308 308 310 311 313 315 317 319 321 322 322 323 324 324 325 325 326 326 326 326 326 327 327 327 327 326 326 326 326 326 325 324 323 323 322 323 323 323 323 322 321 320 318 316 315 316 314 312 311
289 293 292 295 295 296 296 296 290 288 285 286 285 285 289 297 300 299 300 301 301 301 302 303 303 303 303 304 307 310 309 309 307 307 306 307 307 306 306 305 305 305 304 304 307 309 310 310 309 309 308 309 311 314 316 318 319 320 321 322 322 323 324 324 325 326 325 326 326 326 327 327 326 325 325 324 324 324 324 322 322 320 321 320 321 321 320 319 318 316 315 314 312 313 312 309 308
292 293 291 293 291 288 286 285 296 290 287 284 285 284 291 297 297 298 299 301 301 303 303 304 304 303 303 305 309 307 307 305 305 304 304 306 307 307 306 305 305 305 306 306 307 307 307 308 310 310 309 309 310 311 312 314 316 318 319 320 321 322 323 323 324 325 325 325 326 326 326 325 324 324 324 324 323 323 322 322 320 319 319 319 319 320 316 316 314 313 311 312 310 310 309 307 306
Wind_Speed
9 5 4 5 5 5 6 3 6 5 5 3 2 3 6 3 2 5 6 6 6 5 4 5 6 6 2 5 8 7 9 10 8 5 4 5 8 9 8 10 12 12 11 10 10 10 10 6 8 13 14 13 12 12 12 11 12 12 10 10 11 11 11 12 12 12 12 12 11 12 13 12 13 14 13 13 14 14 15 15 15 14 16 17 17 18 19 19 19 19 19 19 19 19 18 18 17
6 5 5 5 4 5 2 2 5 3 4 2 3 2 7 6 5 5 6 4 5 7 5 6 5 4 3 4 3 1 9 10 10 8 8 8 9 8 9 10 12 12 10 10 9 10 11 9 7 11 14 14 13 12 12 12 14 14 12 11 11 11 13 12 12 12 12 11 11 11 11 13 14 13 13 13 14 15 15 15 14 14 16 15 17 18 18 19 19 18 19 18 18 18 17 17 16
5 5 5 5 6 5 4 5 6 3 4 3 6 5 5 5 3 5 7 7 8 9 6 7 5 3 2 3 6 5 6 6 10 11 8 8 10 7 9 11 11 11 11 9 9 10 9 9 6 8 14 13 13 14 12 12 11 14 13 11 11 11 11 11 11 11 12 12 12 11 12 12 12 14 14 13 13 14 14 14 13 14 15 15 16 17 18 18 18 18 18 18 18 17 16 16 15
5 4 6 5 5 3 5 4 6 6 6 4 3 6 5 3 5 10 9 9 9 8 7 8 6 2 4 3 6 1 7 6 7 8 7 7 4 10 10 10 11 9 8 7 9 8 9 9 6 8 11 12 13 12 12 11 12 12 11 10 10 12 11 11 12 12 11 11 10 11 11 12 12 12 13 13 13 13 14 13 13 14 16 16 16 17 18 18 17 17 17 17 17 17 16 16 15
5 3 3 6 5 3 3 4 6 3 4 2 4 4 4 2 8 8 8 7 7 6 7 6 4 3 3 4 3 2 6 9 7 6 7 6 11 10 11 10 9 10 8 7 9 9 10 10 5 6 9 14 12 11 12 12 12 12 10 9 10 11 10 11 11 12 11 11 11 11 11 12 12 12 12 13 14 14 14 14 13 13 14 16 17 17 17 17 17 17 17 17 17 16 15 15 15
5 4 1 5 4 3 4 4 6 7 4 4 3 6 4 4 7 8 8 7 5 4 1 8 2 6 4 3 5 3 4 1 5 6 7 8 10 11 11 9 9 9 8 7 8 8 10 9 6 6 8 10 12 12 12 11 11 10 10 9 10 11 11 11 10 10 11 12 11 11 11 11 12 12 12 11 13 14 14 13 13 13 14 15 16 16 17 17 17 16 16 15 15 15 14 14 14
3 4 4 3 3 3 5 5 4 2 6 3 4 3 4 5 8 10 10 7 4 2 1 5 2 5 5 5 6 6 6 5 3 6 3 10 10 10 11 8 9 10 9 7 8 10 12 8 5 6 6 8 11 11 10 10 10 9 8 11 12 11 11 12 11 11 12 12 12 12 12 11 11 11 11 10 11 13 13 13 13 14 14 15 15 15 16 16 16 16 15 15 15 14 14 13 13
1 5 3 5 3 4 6 5 4 3 5 3 3 3 3 6 7 8 9 8 8 6 8 2 4 5 8 3 2 5 5 5 8 9 11 10 10 10 9 8 9 9 8 7 8 10 11 6 5 5 5 6 9 11 11 11 10 10 10 11 13 13 12 11 11 10 11 11 12 12 11 12 11 11 11 11 11 12 12 12 12 13 14 14 14 15 15 15 15 15 15 15 14 13 13 13 13
2 6 2 5 7 3 5 5 3 3 3 3 3 3 3 3 6 7 8 3 9 5 10 7 5 6 8 6 5 6 6 5 6 10 9 11 10 11 6 8 9 8 8 7 10 10 10 6 6 5 4 5 8 10 12 11 11 12 12 11 12 12 11 11 11 11 11 11 11 11 11 11 10 10 11 11 10 11 11 11 12 13 14 14 14 14 14 14 14 14 14 14 13 13 13 12 12
3 4 4 6 5 6 5 4 5 3 3 4 2 4 5 4 7 6 8 5 6 4 7 6 4 4 3 6 7 6 5 6 9 8 8 10 10 9 8 7 9 9 8 8 8 8 9 8 6 5 4 4 6 9 9 10 12 10 11 12 11 11 11 11 10 11 11 11 11 11 11 11 11 10 10 10 10 11 11 11 12 12 12 13 13 13 13 13 13 13 13 13 12 12 12 12 12
6 4 2 6 7 7 5 4 5 5 5 4 3 4 4 6 6 7 7 5 6 6 8 5 5 7 4 5 5 5 7 8 9 11 9 9 10 8 8 7 8 8 8 8 8 8 10 9 6 5 4 5 7 9 7 7 10 10 9 10 10 10 10 10 9 9 9 10 10 11 11 11 11 10 10 10 10 10 10 11 11 11 12 12 12 12 12 12 12 12 12 12 12 12 12 12 11
7 5 4 7 8 6 6 4 3 3 4 4 4 6 4 8 7 7 7 8 6 6 7 10 2 7 6 3 5 6 8 8 9 10 10 10 8 8 8 6 8 7 8 8 8 9 9 9 8 6 6 6 8 8 7 7 9 10 9 8 9 9 9 10 9 9 11 11 11 10 10 11 11 11 10 8 7 8 10 11 11 12 12 12 12 12 12 11 11 11 11 10 11 11 11 11 11
7 4 6 6 7 7 3 2 3 0 3 7 7 5 5 9 10 8 8 5 8 6 7 11 4 3 6 4 7 9 9 10 10 11 10 9 8 7 7 7 8 8 8 7 8 9 9 10 9 9 7 7 7 8 8 8 8 9 8 8 9 9 9 9 8 10 10 11 11 10 11 12 11 11 10 9 9 9 10 9 10 11 11 11 11 11 11 11 10 10 10 10 10 10 10 10 10
6 4 6 7 1 7 4 5 1 4 7 7 7 6 7 8 9 6 6 7 8 7 6 8 3 1 2 5 7 7 8 11 12 11 8 9 8 7 7 8 8 8 8 7 8 8 8 9 9 9 8 8 7 7 7 8 7 8 8 8 8 8 9 10 10 10 11 11 11 8 9 9 10 10 9 8 7 8 8 8 8 10 10 11 11 11 11 10 9 9 9 9 9 9 9 9 9
6 3 5 6 6 6 6 6 4 6 2 8 4 6 7 2 5 4 6 9 6 9 4 3 1 3 2 8 6 8 12 13 14 11 9 8 9 8 7 7 8 8 7 8 8 8 8 8 8 9 10 8 8 7 7 6 8 8 9 8 9 8 7 9 9 10 10 9 8 8 8 9 9 9 8 8 8 7 7 8 7 7 9 10 11 11 10 9 8 8 8 8 8 8 8 8 8
4 3 6 7 9 7 7 8 3 4 4 6 5 4 7 5 2 7 2 5 6 4 5 4 4 3 4 3 7 11 16 15 14 12 10 9 9 8 7 8 8 8 7 7 8 7 7 8 7 8 9 8 8 7 7 8 7 9 9 8 8 9 9 9 9 9 9 9 9 9 9 8 8 7 8 8 8 9 8 7 8 9 8 8 9 10 10 9 8 8 8 7 8 7 8 7 7
3 4 7 8 10 9 5 8 7 7 7 7 6 7 8 7 6 1 3 2 4 6 5 2 4 1 5 7 6 15 15 14 13 14 11 9 8 7 7 6 7 7 6 7 8 8 8 8 8 7 8 9 8 8 7 8 8 8 7 8 8 8 9 9 9 8 8 8 8 8 8 8 7 6 7 6 7 6 8 9 10 9 9 8 8 9 9 8 8 8 8 7 6 6 6 6 6
3 8 8 9 9 9 7 8 8 4 4 7 6 7 6 7 7 4 4 5 5 5 7 5 3 3 6 6 7 13 14 15 14 16 12 10 9 8 7 7 8 8 7 7 8 9 9 8 8 8 7 8 8 6 6 6 8 8 8 7 6 7 7 8 7 7 7 6 6 6 7 5 5 5 6 7 6 6 7 8 9 9 10 9 9 9 9 8 7 6 6 6 4 3 5 4 5
7 7 9 10 9 3 4 4 3 5 4 5 6 6 6 4 11 7 7 9 10 7 8 8 7 7 6 7 11 13 13 13 15 14 14 14 11 11 9 8 8 9 8 8 8 10 9 8 9 9 8 8 8 7 6 7 8 7 7 7 6 7 8 7 7 7 7 7 7 6 5 5 4 4 5 6 6 9 7 7 8 9 9 8 7 7 6 5 4 4 3 2 1 5 5 2 2
9 7 10 10 7 5 4 3 5 5 6 6 6 6 6 4 6 8 9 8 10 11 8 10 10 10 10 11 13 13 13 13 13 13 13 13 12 12 10 10 10 9 9 8 8 8 9 8 10 9 9 9 8 7 6 7 7 6 7 6 6 6 7 6 7 7 7 7 6 6 5 4 3 5 5 5 5 5 4 6 7 9 8 7 6 5 6 3 3 2 1 3 5 4 1 1 1
7 8 9 6 6 4 4 3 4 5 1 4 5 5 7 6 6 7 7 8 10 9 10 10 12 11 12 13 14 13 13 14 13 13 12 13 12 10 9 10 9 9 9 9 8 9 10 9 9 10 9 9 9 7 7 7 7 6 6 5 5 5 6 6 6 7 7 7 7 5 4 5 3 3 4 5 5 4 5 4 4 4 4 4 4 4 4 5 5 4 4 4 5 1 2 0 1
4 12 12 8 2 8 6 5 5 5 3 3 6 7 6 6 5 8 9 10 5 6 10 10 8 10 15 15 15 13 14 15 14 14 15 15 15 13 10 9 9 9 9 9 9 9 10 10 9 9 10 9 9 9 8 7 7 7 6 6 6 5 5 5 5 6 6 7 7 6 5 5 5 4 5 4 4 3 3 3 3 3 3 3 3 4 4 3 4 2 2 3 1 2 2 1 2
8 9 11 6 5 6 8 5 4 4 5 4 6 3 5 7 5 9 11 12 2 5 10 0 6 6 16 15 15 14 15 17 17 18 16 15 15 13 12 10 11 10 9 9 10 9 10 11 10 9 10 10 11 9 8 7 7 7 6 6 6 6 5 5 5 5 6 7 6 6 5 5 5 4 4 4 3 3 3 3 3 3 3 3 4 4 3 3 4 3 3 3 2 2 2 2 2
11 7 7 11 4 5 4 4 3 3 4 4 3 3 5 6 7 6 11 11 6 8 5 5 1 6 14 15 16 17 17 18 19 18 17 15 14 13 12 11 10 9 8 10 10 9 10 11 11 10 9 10 10 10 9 8 8 8 8 6 6 6 5 5 5 5 5 6 7 6 6 5 5 5 5 4 4 3 3 3 3 3 3 3 3 3 3 3 4 3 4 2 2 3 3 2 2
12 11 3 3 4 3 3 2 3 3 4 2 1 5 6 6 2 2 8 10 10 5 5 4 2 7 12 14 15 15 16 15 15 15 13 12 13 12 11 9 10 9 10 10 9 10 11 10 12 12 10 11 9 10 9 8 8 8 8 8 8 7 6 5 5 5 5 5 6 6 6 5 5 5 5 5 4 4 3 3 3 3 3 3 3 3 3 3 4 3 4 4 3 3 3 3 2
13 12 7 6 7 5 3 3 4 5 3 3 5 7 4 2 4 8 10 8 7 8 6 6 6 8 11 13 14 15 15 16 15 15 16 13 12 14 13 11 10 11 11 10 10 9 10 12 12 13 12 11 10 10 9 8 7 8 8 7 7 7 6 5 5 5 5 5 5 6 6 5 5 5 5 5 5 4 4 4 4 3 3 3 3 3 4 3 4 4 4 3 3 3 3 2 1
1 12 8 7 8 6 5 6 6 4 4 6 7 8 7 4 4 6 10 7 7 8 8 8 9 9 10 10 11 13 14 15 16 13 12 13 13 13 13 12 12 12 11 12 10 9 9 12 12 12 12 11 10 9 9 8 8 7 7 7 6 6 6 6 5 4 4 4 5 6 6 6 4 4 5 5 5 5 4 4 4 4 3 3 3 3 3 3 2 3 3 3 3 2 2 0 2
5 6 6 8 7 6 6 7 6 4 6 9 6 7 2 5 5 10 5 5 7 9 10 10 10 10 9 10 11 11 11 12 12 13 17 16 13 13 15 13 14 13 13 13 11 10 10 13 13 13 12 11 10 10 9 8 8 8 7 6 6 6 6 6 5 5 4 4 4 5 6 6 5 5 5 5 4 5 4 4 3 3 3 3 3 3 3 3 3 2 1 1 2 2 2 2 1
2 7 7 10 9 9 12 11 9 8 6 8 5 8 9 9 11 13 5 6 7 9 10 11 11 10 10 10 9 9 10 11 12 13 15 14 13 12 15 14 13 13 10 12 12 12 13 13 12 13 12 12 11 11 9 8 7 7 7 7 6 6 6 6 6 6 5 5 5 6 6 6 6 5 5 6 5 4 4 4 4 4 4 3 4 3 3 3 3 2 3 2 3 2 2 3 2
5 8 8 8 9 11 14 12 11 10 7 9 6 8 11 14 16 11 9 8 8 8 9 10 9 10 10 10 9 9 9 10 12 13 13 13 13 13 14 14 14 12 10 10 13 13 11 8 8 9 12 12 12 10 9 8 8 7 7 7 7 7 6 6 6 6 6 6 6 6 6 7 6 6 6 6 6 5 5 5 5 4 4 4 3 4 4 3 3 3 2 3 3 3 3 4 4
9 9 8 8 8 10 13 13 13 10 7 9 7 11 10 10 15 17 12 11 11 10 10 10 10 11 10 10 10 10 11 11 13 14 13 14 13 12 14 13 14 14 10 11 14 14 13 11 9 8 11 12 12 11 10 9 9 8 7 7 7 7 6 6 6 6 6 6 6 6 7 7 7 7 6 6 6 6 6 6 6 5 5 5 4 4 4 4 4 4 4 4 4 4 4 3 4
8 8 10 9 9 7 11 15 15 14 6 9 9 11 13 12 7 13 8 9 11 11 10 10 10 10 11 11 11 11 11 11 12 12 12 13 13 12 13 14 14 15 14 13 12 13 14 13 12 10 12 13 13 12 11 10 9 9 8 7 6 7 6 6 6 6 6 7 7 6 8 8 7 7 7 7 6 6 6 5 5 5 6 5 5 5 4 4 4 3 4 4 4 4 4 5 4
10 11 8 11 9 6 7 12 12 15 8 13 16 8 7 12 9 10 9 9 9 9 10 11 11 12 11 11 10 10 10 11 11 12 13 13 12 12 12 14 14 15 14 13 13 14 14 14 13 14 14 14 13 13 12 11 9 9 9 8 8 8 8 7 7 6 7 7 7 7 8 8 8 8 8 7 6 6 6 6 5 6 5 5 6 5 5 4 4 4 4 4 4 4 5 6 5
10 10 9 9 13 10 6 9 10 11 9 11 13 13 12 3 9 5 6 9 10 10 11 11 10 9 10 8 9 9 10 11 13 13 14 14 12 14 12 12 13 14 14 14 13 14 14 13 13 13 12 14 12 12 12 10 10 9 8 8 8 8 9 7 7 7 7 6 7 7 8 8 8 9 8 8 7 6 6 7 6 6 6 6 6 5 5 4 4 5 5 4 3 5 6 6 7
11 11 9 8 12 14 10 6 11 12 13 11 12 14 15 16 11 8 8 7 9 10 10 10 10 8 8 8 9 10 10 11 12 12 14 15 15 14 13 12 13 13 12 15 14 13 12 12 11 12 12 13 13 12 12 11 10 9 8 9 9 9 8 8 7 7 7 7 7 8 8 8 8 9 9 8 7 7 6 7 6 6 5 6 7 6 6 6 5 6 6 6 5 5 6 6 6
12 13 12 11 10 11 12 5 8 12 11 12 14 12 15 17 17 15 9 11 10 10 9 8 8 8 9 9 9 9 10 12 10 11 13 13 14 13 13 12 12 12 13 13 14 13 12 12 12 11 12 12 11 11 10 10 9 9 9 9 9 9 8 8 8 8 7 7 7 8 8 8 8 8 9 9 8 7 7 7 6 5 6 7 7 6 7 7 7 7 6 6 7 5 4 4 4
9 13 13 12 8 8 9 5 5 6 6 12 14 16 16 14 15 14 15 11 11 11 12 10 9 8 8 8 9 10 11 12 8 10 12 14 14 13 12 12 12 14 14 14 14 14 14 13 12 13 12 13 13 12 11 11 11 10 10 11 11 11 10 10 10 9 8 8 8 9 9 8 9 9 8 9 8 7 7 7 7 6 7 8 8 8 7 6 6 7 6 6 7 7 6 6 5
10 11 13 11 10 8 8 8 8 5 6 7 11 15 17 16 14 14 12 13 14 15 14 13 12 12 10 10 10 10 10 5 6 9 12 12 12 13 12 11 12 15 14 14 15 15 15 15 14 13 12 13 14 13 11 10 10 10 10 11 10 10 10 10 11 10 9 7 9 9 9 9 10 9 8 9 8 9 8 8 8 8 8 9 8 6 6 5 6 7 6 7 6 7 7 6 5
10 10 10 10 10 6 7 5 7 5 5 9 9 12 14 15 15 15 15 16 15 14 15 14 14 13 11 11 12 11 9 9 9 11 11 11 12 13 12 12 12 14 14 16 16 16 16 15 14 13 12 13 13 13 12 12 11 11 11 9 10 9 9 9 9 9 9 10 10 10 10 11 10 10 10 9 9 10 9 8 8 8 9 9 7 7 7 7 7 8 8 7 6 6 5 4 5
9 9 9 10 7 9 7 8 8 6 7 3 4 9 11 14 13 15 15 16 16 15 14 15 12 13 14 13 12 11 12 10 11 12 12 12 13 13 13 13 13 12 13 14 15 16 14 14 14 14 14 14 12 13 12 12 12 11 10 9 9 9 8 9 9 10 10 11 12 12 11 11 13 12 12 11 9 9 9 9 8 8 9 10 7 7 8 8 8 9 9 9 7 8 6 6 6
11 10 10 8 9 8 7 3 3 3 7 4 8 11 13 14 15 13 14 17 16 15 15 14 12 11 11 9 10 12 13 12 11 12 11 12 13 14 15 14 13 14 14 14 14 14 12 16 16 16 15 14 13 13 14 13 11 11 10 9 8 8 7 8 9 10 11 11 10 11 13 12 13 12 11 11 10 10 10 9 9 9 9 8 7 8 8 10 9 9 9 9 9 8 8 6 5
12 14 13 10 7 7 5 6 4 4 6 9 8 8 12 12 18 18 13 12 16 17 18 17 16 15 14 14 14 12 10 11 11 12 13 13 14 13 13 14 14 14 14 14 13 14 14 14 16 16 13 13 13 14 15 13 12 11 11 10 12 12 12 12 15 15 12 12 13 11 12 13 13 12 11 13 13 10 10 11 10 9 9 8 8 8 9 9 11 10 10 9 10 10 8 6 5
10 11 14 11 10 8 7 4 1 7 9 3 2 10 7 2 7 7 10 12 15 13 17 19 18 17 15 14 13 13 13 12 11 10 10 11 12 12 13 14 15 15 15 14 13 15 16 14 14 15 14 13 12 13 14 12 13 13 15 15 13 14 14 13 12 12 13 11 11 12 12 13 14 15 15 15 13 10 10 10 11 10 10 10 9 9 10 10 9 8 7 9 10 7 6 8 9
9 6 15 9 8 6 5 4 5 8 5 2 7 6 10 12 12 9 7 7 9 13 14 17 18 19 18 15 15 14 13 13 10 12 13 12 12 13 15 16 14 15 13 12 13 14 16 16 15 16 13 12 12 12 15 15 14 15 16 17 14 14 14 12 11 13 11 11 13 13 13 13 14 15 14 15 15 13 11 12 12 11 12 12 10 10 10 9 9 8 9 9 9 9 9 10 10
4 6 11 12 12 8 5 4 6 4 5 7 6 6 7 11 8 13 15 17 16 15 16 16 16 17 18 18 16 15 14 13 12 10 12 13 13 13 13 13 13 11 10 13 13 13 13 14 15 14 15 14 13 16 15 17 15 14 14 13 14 13 13 12 10 10 10 11 14 13 13 12 13 14 14 14 14 14 11 13 13 11 12 11 9 9 9 10 11 12 11 10 11 10 10 9 9
2 3 5 4 5 3 4 4 4 4 4 13 9 7 7 15 6 7 9 14 16 17 18 18 17 17 18 19 17 15 14 11 12 12 11 11 11 11 11 9 10 11 10 11 11 11 11 12 14 16 16 14 13 16 16 17 17 14 14 14 15 13 11 10 9 11 12 11 13 15 13 12 12 12 14 14 12 12 10 10 11 11 10 9 9 9 10 11 11 11 10 10 11 12 10 9 10
7 10 9 7 5 4 3 1 0 2 10 13 6 11 9 12 3 9 10 11 12 12 12 13 15 16 16 17 18 15 15 12 9 10 10 9 8 9 9 11 10 9 8 10 10 10 10 12 14 16 17 14 14 16 17 18 16 15 14 15 16 15 13 11 10 12 11 11 13 14 14 13 11 11 11 10 12 11 11 11 11 11 10 10 10 9 8 8 9 8 7 8 9 10 8 9 9
11 6 7 7 4 3 4 1 2 4 12 1 6 13 11 11 2 4 10 10 6 8 12 13 12 14 15 15 16 17 16 14 11 10 9 9 7 7 7 9 9 10 8 9 8 9 10 11 12 15 15 16 15 14 15 16 16 16 15 15 15 14 13 10 13 12 12 12 13 12 12 12 12 11 11 11 12 14 12 12 13 14 11 10 11 9 9 8 6 5 7 8 8 9 9 9 8
10 10 10 10 5 4 4 3 6 11 10 2 4 5 7 19 15 10 6 9 7 10 10 10 10 12 12 12 13 12 13 13 12 7 7 7 7 7 7 8 7 9 9 10 10 10 10 11 13 14 15 16 15 14 15 16 15 16 16 15 14 12 13 13 12 11 11 12 12 12 12 12 11 10 10 11 13 13 11 12 13 12 10 10 9 10 9 9 9 9 10 10 9 9 8 8 5
14 14 13 12 9 7 7 7 3 5 3 5 4 0 10 13 12 15 19 21 14 9 10 10 9 8 7 2 0 0 3 3 4 3 3 4 5 6 8 8 9 9 10 10 10 10 10 9 12 13 15 13 13 13 14 14 15 15 14 13 13 11 12 13 13 12 12 12 12 12 12 11 11 13 12 14 14 14 12 11 10 11 11 11 11 11 11 10 10 9 9 10 10 8 7 9 8
15 10 13 8 5 4 10 9 12 8 4 3 5 4 6 5 1 5 5 10 9 8 6 5 6 5 4 0 1 2 1 1 1 1 3 4 6 7 7 7 7 7 8 9 8 9 8 9 11 13 13 12 13 13 12 14 13 14 14 14 14 13 14 11 11 11 12 12 12 12 10 10 10 11 13 12 11 10 10 10 10 11 10 10 10 11 10 10 10 8 7 9 8 7 8 8 8
3 2 4 7 9 3 7 2 5 4 2 4 6 7 7 8 6 6 5 7 8 9 10 9 10 8 5 3 3 4 3 4 4 4 5 6 6 6 5 5 6 6 6 6 7 7 8 9 9 10 11 10 11 12 12 12 13 12 13 14 15 13 10 10 9 9 10 11 11 11 11 12 10 9 9 9 9 10 11 13 11 11 10 11 11 10 10 9 9 9 8 8 10 7 8 9 7
9 7 10 5 6 5 4 2 2 3 3 10 5 6 11 10 16 19 16 12 10 9 9 10 12 11 7 5 4 4 3 4 5 5 5 5 5 5 5 5 5 5 5 6 6 6 7 7 7 8 9 9 10 11 11 11 11 12 13 14 14 13 14 13 11 11 12 12 10 10 10 10 9 9 8 8 9 11 11 11 11 11 11 10 10 10 9 8 8 9 8 7 8 8 7 8 7
10 7 9 3 3 4 5 9 3 3 9 7 8 12 8 4 9 1 13 16 13 9 10 10 10 9 10 6 4 5 5 6 6 5 4 4 3 4 4 3 3 4 5 5 5 5 5 6 7 8 9 10 10 10 11 11 12 13 13 13 14 14 13 13 12 12 11 10 10 9 8 8 8 7 7 6 9 11 11 11 10 10 9 9 9 9 10 9 9 8 8 7 7 7 7 6 7
5 9 8 10 5 7 4 1 11 10 10 7 8 10 9 9 12 1 3 11 14 13 9 7 7 7 9 6 5 6 6 5 4 4 3 3 3 2 2 3 3 2 2 1 2 3 3 4 5 6 8 8 8 8 9 9 11 9 9 11 13 13 12 12 12 13 12 11 11 10 10 9 8 8 8 7 9 10 9 9 9 8 8 9 8 8 9 9 9 8 8 6 6 8 8 7 6
3 2 12 10 4 8 8 8 2 3 7 4 5 5 6 8 11 12 11 7 8 10 12 10 7 6 5 6 6 6 6 4 4 2 2 2 2 1 2 2 3 3 3 2 2 2 3 4 4 5 4 5 5 7 7 9 9 9 9 9 10 11 11 11 11 12 13 13 12 11 11 10 10 8 8 9 8 9 9 9 9 9 9 8 9 8 9 9 8 8 7 6 6 7 7 7 6
8 11 12 10 5 2 5 8 9 5 5 8 6 7 5 4 2 8 13 15 11 9 10 9 5 5 4 1 1 4 5 4 4 3 2 2 1 2 2 2 2 1 1 1 1 1 1 1 3 3 4 5 6 6 6 7 7 8 9 10 10 10 11 11 13 12 13 14 12 10 9 6 7 8 8 9 8 9 9 9 9 9 9 9 9 9 7 7 7 7 6 6 6 7 7 6 7
11 12 12 14 12 7 9 10 9 6 4 5 5 9 4 4 3 2 4 2 4 6 4 2 4 3 0 0 3 4 4 4 4 3 2 1 1 1 2 2 1 1 2 2 2 1 1 2 2 2 3 4 5 6 6 6 7 7 9 9 10 9 10 11 12 12 13 13 11 8 7 6 8 7 8 8 9 8 9 9 9 9 9 9 9 9 7 7 7 6 6 6 6 6 6 6 6
Wind_Direction
279 243 260 252 263 265 290 247 266 176 245 239 111 220 99 101 94 150 110 144 147 79 92 109 96 143 347 10 11 29 41 18 12 319 58 120 147 119 109 123 128 133 128 128 129 138 141 127 118 115 117 119 119 112 110 108 104 104 103 98 96 102 101 89 89 92 94 97 97 96 94 92 89 86 87 88 84 81 79 78 76 77 76 74 77 77 75 75 75 75 73 73 72 70 70 69 67
272 297 261 252 263 288 236 342 274 253 224 215 122 12 104 109 209 151 131 165 86 122 121 118 134 76 16 344 342 39 63 54 32 77 87 123 137 124 116 131 137 134 124 125 139 140 133 122 121 126 123 124 121 123 121 109 109 109 109 105 102 100 97 100 95 98 100 101 92 92 91 87 86 89 90 87 85 83 80 80 80 81 81 80 81 81 79 78 79 78 76 76 74 72 71 71 69
291 297 264 226 252 258 304 232 261 259 269 223 106 91 115 152 174 141 122 82 104 120 134 127 106 152 139 200 177 336 96 67 81 87 108 140 140 129 136 132 135 131 129 135 136 139 137 124 131 132 126 124 124 125 120 110 112 118 111 102 97 100 98 97 93 88 85 87 94 92 91 91 91 86 84 85 84 83 81 80 83 82 79 81 81 81 80 80 80 80 79 77 75 73 71 69 68
278 277 298 286 276 214 262 222 251 284 265 19 139 117 145 151 119 88 86 96 115 130 146 139 167 65 306 123 44 130 92 85 64 115 122 176 135 133 136 137 134 128 132 135 135 133 123 130 134 129 127 123 119 115 107 107 116 102 98 99 105 104 105 104 100 95 93 90 93 99 95 93 91 87 85 82 83 83 83 80 78 82 79 78 81 81 82 82 81 80 79 76 74 72 69 66 65
261 273 290 293 281 248 303 292 292 282 293 44 58 139 132 145 112 111 96 106 128 143 173 156 154 120 6 353 358 345 73 97 102 107 134 115 107 129 134 138 142 129 138 142 131 121 119 117 127 127 144 131 121 118 105 102 107 110 104 106 113 114 106 93 97 102 104 106 103 100 100 92 89 89 85 83 78 81 76 79 77 74 80 82 81 82 83 84 83 80 78 76 74 71 68 66 64
251 266 263 275 285 7 248 238 215 244 40 329 6 89 136 128 124 122 118 119 122 156 138 180 338 150 177 57 16 47 356 182 105 105 131 112 125 129 132 150 138 141 137 142 130 132 129 117 123 130 120 119 124 120 106 109 111 106 114 112 110 113 105 102 99 104 100 87 92 100 99 97 95 91 88 86 86 87 85 83 84 82 80 77 81 84 84 84 83 80 77 76 74 72 69 67 65
307 292 213 243 216 234 262 258 254 260 74 346 19 78 142 125 125 137 133 126 146 155 213 187 147 150 172 119 105 70 65 69 171 121 101 128 129 136 138 150 141 136 139 136 134 124 124 114 129 126 125 132 132 122 119 117 114 110 112 115 111 110 112 111 105 102 103 101 102 100 101 98 97 93 90 87 88 89 89 86 87 85 83 82 80 81 81 81 81 79 78 76 74 72 70 68 65
214 279 22 277 225 217 231 248 282 259 83 23 56 38 89 127 143 164 158 180 162 195 183 202 204 274 72 180 141 102 91 45 70 103 110 131 137 135 151 145 143 134 139 138 132 119 117 114 119 115 126 135 125 120 114 115 118 120 113 120 118 113 111 113 111 110 110 110 106 103 104 107 107 97 92 88 88 86 82 86 86 86 86 85 84 83 82 82 81 81 80 77 75 73 71 67 65
228 265 103 270 258 190 265 243 240 68 86 139 131 68 3 145 170 169 168 171 126 201 167 182 181 232 123 137 73 123 87 100 97 101 123 131 138 143 155 147 141 137 136 143 115 128 133 119 120 111 102 110 126 129 122 112 117 127 120 122 120 115 116 116 117 115 112 111 109 105 106 108 106 105 101 97 90 89 90 89 89 86 85 86 86 87 87 87 84 81 82 78 76 73 71 68 66
218 243 215 244 286 246 228 221 237 164 164 118 89 115 166 178 185 196 170 160 166 170 164 166 195 264 120 135 124 154 121 131 122 126 131 137 139 146 150 149 133 139 141 139 137 140 136 123 118 96 96 108 130 127 115 117 118 117 125 126 125 124 124 123 122 124 119 117 121 116 110 105 105 102 105 102 96 94 92 95 96 96 94 90 88 88 86 86 89 87 83 80 76 74 70 68 67
240 185 313 255 230 251 231 225 198 140 191 143 164 137 170 178 192 199 182 164 139 165 124 149 180 220 222 96 70 72 108 136 151 141 144 139 145 146 146 146 135 143 138 145 139 139 136 143 108 88 88 100 98 114 112 117 114 107 121 127 121 122 123 124 121 121 111 106 102 103 108 110 112 106 101 100 97 93 94 92 92 95 93 92 91 90 88 87 86 85 83 81 78 74 71 69 66
246 217 179 237 245 241 232 239 148 142 146 172 176 149 156 180 186 197 186 176 187 166 176 183 166 187 218 161 126 136 136 155 157 138 146 141 152 150 140 140 144 141 138 149 149 142 145 141 155 106 82 89 105 111 116 104 104 106 99 105 118 124 120 116 119 113 99 102 105 112 115 110 102 102 97 91 91 102 96 91 91 92 93 90 87 84 85 86 86 86 86 84 81 76 73 69 67
251 224 213 239 246 243 18 312 185 329 211 200 143 127 157 174 190 194 185 199 179 194 180 189 66 222 206 198 104 132 151 165 152 141 147 154 144 147 148 138 152 139 144 153 156 145 146 154 156 161 108 101 98 104 108 104 105 106 106 110 99 94 99 97 89 106 104 103 105 108 106 104 101 90 85 74 56 62 85 81 89 91 89 89 87 86 84 86 89 90 86 84 82 78 74 71 68
246 206 241 236 263 278 258 248 95 218 216 110 87 131 173 183 190 200 183 202 176 201 60 150 179 177 239 108 155 159 159 166 147 151 153 155 144 140 152 141 150 142 147 159 168 155 155 163 155 159 142 161 139 117 112 113 107 103 97 100 96 94 97 93 92 96 106 104 101 98 97 97 87 82 77 69 64 69 79 92 93 94 91 90 89 86 84 87 91 92 87 85 83 82 77 74 70
244 239 244 253 248 241 230 239 228 209 172 117 99 150 162 148 196 176 211 203 130 76 106 58 333 195 120 212 154 168 154 162 148 155 158 149 142 146 144 146 150 146 156 174 168 166 165 170 160 159 169 174 159 169 159 123 116 107 110 110 104 94 88 97 99 101 102 99 96 97 94 92 85 86 80 72 63 66 93 94 91 95 101 93 87 86 86 87 89 90 90 85 84 82 81 77 70
276 223 232 241 238 225 194 222 224 247 144 109 120 124 174 139 196 181 133 9 86 99 159 172 200 302 14 24 47 125 142 147 143 157 158 144 144 142 143 152 160 156 164 186 170 175 169 174 163 163 169 175 170 171 158 154 123 120 117 115 113 114 109 104 107 105 107 110 112 117 116 113 116 109 106 88 68 59 51 81 95 96 101 100 92 90 88 87 85 81 82 81 83 86 82 77 68
259 266 225 231 241 211 180 210 182 222 98 109 135 159 176 165 179 159 16 236 179 159 196 117 172 209 37 54 71 121 135 138 143 158 157 152 153 153 156 164 167 161 167 192 180 179 182 172 174 173 175 172 175 170 161 161 131 125 117 115 118 116 118 116 109 113 113 118 132 144 161 159 139 137 159 123 88 67 56 71 87 84 91 95 100 90 83 75 74 76 77 82 87 90 105 104 89
227 213 225 224 233 215 200 214 194 66 142 121 151 174 194 157 167 173 178 191 230 132 196 146 96 135 78 94 127 124 135 146 160 162 166 162 167 160 167 172 174 168 173 184 188 180 185 188 185 183 179 174 174 173 165 159 151 176 167 152 149 136 129 133 148 152 151 143 151 176 196 164 161 167 120 144 136 117 73 68 79 84 88 85 85 81 73 69 65 70 76 86 95 146 184 174 143
217 218 224 236 213 248 209 208 125 195 139 127 133 174 207 161 167 157 196 192 194 196 206 186 187 167 130 135 139 136 148 158 165 173 169 169 172 168 170 173 179 166 175 182 185 186 186 188 188 191 185 177 177 173 175 160 166 188 176 176 154 178 159 174 176 168 183 165 181 203 198 176 176 107 62 52 68 70 78 67 82 85 84 89 95 90 77 69 64 62 67 71 177 233 228 243 99
223 258 225 227 244 111 104 111 129 47 123 136 152 161 199 119 179 141 216 193 193 214 202 194 201 185 169 150 152 147 162 166 175 181 180 175 176 173 175 173 178 173 172 180 176 188 184 191 188 194 190 190 185 185 181 177 175 190 182 179 181 179 177 194 195 180 193 184 190 203 200 143 184 88 82 76 114 135 104 95 101 109 113 109 125 112 108 96 132 140 199 259 233 226 283 345 74
185 230 237 229 219 169 144 155 127 120 252 143 131 132 194 160 181 169 202 226 208 223 219 200 203 192 167 157 157 158 169 176 182 191 193 184 182 180 183 176 178 173 171 172 175 185 188 191 186 191 193 194 196 190 190 192 182 184 186 189 190 181 175 188 195 185 194 188 195 205 200 116 219 160 152 174 197 177 162 171 165 192 181 163 194 210 181 153 215 183 185 220 246 91 231 310 304
216 224 237 288 3 244 144 137 118 128 42 163 134 169 179 152 185 203 212 217 216 223 215 210 208 192 159 163 165 164 175 179 186 193 200 193 190 185 182 175 179 177 164 174 178 180 189 192 186 188 188 195 198 199 196 189 183 189 189 191 195 196 182 186 191 185 190 194 192 206 183 177 201 196 185 189 194 182 190 187 192 202 219 181 178 220 211 190 213 246 247 250 260 271 337 300 333
226 217 237 252 274 268 123 136 123 145 163 175 185 137 116 179 195 208 218 226 74 33 22 339 202 177 158 159 159 169 177 185 190 197 200 200 196 192 188 180 179 181 172 179 175 181 184 188 188 187 190 192 198 206 198 190 191 197 194 190 199 199 187 192 197 192 187 183 194 195 179 185 190 183 174 179 181 193 190 188 189 194 199 218 190 228 209 203 216 215 230 229 262 321 281 292 275
226 228 201 225 233 261 139 122 130 194 198 194 65 103 211 185 226 181 219 229 244 68 55 29 331 142 151 160 171 173 181 185 193 197 200 204 202 198 194 190 186 177 177 179 177 179 180 185 185 188 190 189 194 204 203 199 197 200 197 183 205 199 198 198 198 199 184 181 188 185 197 189 184 181 177 177 182 188 187 187 194 184 209 214 192 225 191 211 224 217 219 225 229 227 252 281 245
216 235 200 198 166 108 117 112 187 204 207 53 190 212 219 207 269 136 233 232 235 169 123 116 143 165 169 171 174 180 182 188 193 194 197 206 206 205 202 197 189 182 182 185 179 179 177 182 186 190 189 189 190 197 205 204 202 201 197 199 199 203 210 206 201 191 193 190 185 194 197 198 185 185 177 177 178 175 177 183 190 202 203 207 196 205 202 200 214 208 219 213 216 230 209 213 220
220 229 216 188 196 169 144 170 207 205 195 194 196 231 214 177 35 251 251 237 218 178 174 156 166 180 185 186 182 182 185 189 190 190 196 199 204 202 202 200 193 194 190 185 180 181 176 181 188 189 189 188 188 191 198 202 204 202 203 200 196 190 210 210 209 197 201 195 187 192 194 208 193 187 173 176 168 172 172 177 194 207 199 209 206 208 200 215 199 199 212 220 213 230 245 224 269
235 216 218 204 196 186 171 214 186 192 221 190 221 219 204 151 186 253 211 228 178 178 190 185 187 196 197 196 189 191 190 190 190 187 190 198 203 204 201 200 201 200 190 188 184 182 180 182 186 188 192 187 187 192 192 197 195 201 203 202 196 191 199 202 208 212 207 202 197 180 192 207 203 194 176 176 171 171 178 177 195 192 205 202 207 217 188 219 227 210 198 211 210 229 250 209 258
250 211 196 217 201 203 189 218 197 181 216 203 229 240 154 162 209 236 133 134 174 183 186 184 190 204 205 201 194 194 197 195 187 186 192 193 198 201 201 199 202 200 193 191 187 182 180 186 185 188 190 185 190 192 191 200 195 196 194 203 203 198 189 200 202 209 213 217 208 180 195 194 210 196 188 177 179 178 181 183 189 196 202 196 196 206 188 207 223 228 179 286 318 298 264 250 220
177 192 204 212 215 222 210 215 208 199 225 170 202 257 229 192 228 220 183 165 190 194 187 187 191 197 205 203 196 195 201 193 189 194 199 198 197 199 205 201 201 200 198 192 188 183 186 186 187 186 188 181 191 194 192 198 200 193 191 198 202 195 191 198 199 202 209 215 211 206 196 200 199 207 191 193 194 199 195 195 190 192 214 191 185 181 190 196 209 209 191 206 232 240 255 268 209
190 204 232 203 213 232 218 211 218 189 217 159 169 243 232 216 220 212 178 175 180 203 200 194 193 193 199 197 195 200 201 194 195 202 202 199 197 199 205 202 200 200 195 192 191 190 185 183 185 182 186 184 189 195 193 192 198 193 192 196 200 192 199 197 200 201 204 209 208 206 203 200 203 207 204 199 201 212 204 211 223 203 211 191 190 176 196 201 210 195 204 202 207 234 248 238 266
204 197 228 224 204 229 207 201 184 200 156 169 189 246 253 243 206 200 168 173 180 200 205 199 195 191 191 192 194 199 200 201 205 205 204 199 197 199 202 202 199 199 197 195 195 190 185 180 178 185 184 189 185 195 196 197 195 194 193 193 192 190 194 201 200 202 200 204 203 204 204 203 205 208 207 203 205 215 215 213 216 214 210 201 202 195 209 208 217 222 222 240 238 244 255 291 296
205 171 212 220 226 217 193 187 183 202 142 191 178 244 252 246 237 158 151 174 185 207 209 206 201 194 189 189 195 198 201 202 211 213 207 205 201 199 199 200 197 197 199 196 193 191 191 182 181 188 182 189 187 192 194 198 196 195 195 191 194 188 196 201 203 202 202 199 201 203 199 203 204 204 206 206 206 209 223 222 215 213 211 201 216 208 213 236 226 233 243 249 270 256 253 256 248
202 214 201 202 201 180 145 189 196 207 163 183 193 236 229 236 202 153 161 180 195 207 217 213 209 203 193 193 195 200 200 202 206 211 207 203 205 205 203 201 198 197 198 194 192 192 193 187 182 191 186 189 189 192 194 196 198 197 197 190 195 192 199 201 204 203 204 201 199 201 195 198 200 201 205 203 212 214 220 225 221 217 193 198 211 216 209 227 236 228 236 229 255 286 280 266 266
200 209 232 193 197 203 215 141 203 193 177 186 209 238 248 328 117 154 164 198 201 213 219 222 213 206 201 199 197 198 201 202 205 204 204 202 205 207 207 202 202 199 200 200 198 194 195 190 187 192 189 188 191 191 193 195 201 200 199 197 195 200 201 205 202 202 205 206 204 203 200 193 198 200 200 201 209 217 223 228 223 220 192 204 213 210 218 222 241 239 240 228 205 247 262 270 272
185 187 218 194 218 217 201 179 178 190 202 222 200 227 244 248 237 174 185 195 215 217 218 223 218 205 204 207 207 205 206 207 211 201 200 201 204 204 205 199 200 198 199 200 201 199 197 196 191 191 196 190 192 189 188 194 199 201 202 203 199 202 202 206 204 203 204 207 207 204 201 197 197 199 198 198 205 209 216 224 222 216 197 207 214 214 216 227 229 236 243 251 234 234 266 273 280
191 186 199 211 208 206 223 105 131 184 186 217 223 223 232 239 244 247 197 179 201 223 223 223 219 213 213 211 213 214 214 220 213 201 198 200 203 201 200 198 196 197 198 198 199 200 201 199 196 191 195 195 192 192 188 192 194 197 199 201 204 201 203 204 207 210 204 207 205 203 201 200 198 198 197 196 200 205 211 214 215 212 207 217 212 205 217 229 226 223 222 236 255 254 238 259 269
190 201 216 228 221 216 210 114 142 175 212 218 223 233 243 243 242 236 236 189 206 220 222 216 210 214 217 217 214 215 218 226 207 203 200 202 201 200 199 197 195 196 199 198 197 199 200 200 197 200 195 205 207 199 197 193 193 195 201 204 204 203 204 206 215 212 211 209 206 204 200 202 210 203 199 196 197 199 209 206 201 206 216 221 215 215 220 225 221 234 239 231 241 252 249 242 247
206 211 217 224 223 235 190 166 150 172 225 231 223 239 244 246 244 246 239 226 213 221 223 223 219 217 215 216 220 220 225 217 197 198 204 200 200 198 197 198 196 197 200 196 199 199 200 201 201 199 197 200 209 209 202 201 201 199 197 203 204 204 201 204 212 213 208 212 211 211 207 204 205 204 199 204 198 197 202 209 208 201 203 217 219 213 212 212 227 225 227 235 218 237 253 246 236
213 218 210 227 220 211 94 143 158 157 216 254 257 255 255 249 249 243 238 240 237 228 231 230 225 223 221 217 217 220 218 208 197 210 205 203 198 196 196 200 203 205 198 200 200 199 201 202 203 199 201 199 204 209 207 206 205 209 207 205 202 207 208 205 208 205 200 205 209 211 212 211 206 206 199 199 202 197 197 194 200 203 206 207 198 201 203 211 220 226 227 233 238 209 225 236 225
211 208 214 213 214 216 213 171 170 174 215 279 281 283 278 276 265 258 249 239 239 238 233 234 227 227 224 219 212 212 216 211 205 207 207 203 197 196 199 202 202 201 204 204 202 202 201 203 202 201 203 203 200 203 209 210 208 209 213 216 209 211 205 204 201 199 202 205 211 212 213 212 211 207 208 204 202 196 195 195 197 205 213 205 192 195 201 207 216 224 227 229 238 251 211 225 212
214 215 213 219 213 220 261 111 157 153 236 274 280 277 268 260 261 251 237 236 238 232 230 228 226 226 229 228 227 222 223 218 213 213 207 201 197 199 201 201 196 200 204 204 203 200 201 201 201 201 203 203 202 195 197 207 203 203 207 215 219 216 225 217 208 207 203 206 208 208 210 210 214 215 212 206 195 197 197 203 203 205 212 196 190 200 206 219 216 220 215 218 217 229 239 227 199
208 215 217 214 210 230 148 130 180 215 232 189 219 276 259 244 241 244 241 228 224 222 223 221 221 221 216 221 223 222 225 229 222 215 205 199 197 199 201 199 198 202 203 205 199 201 203 204 202 202 202 204 204 201 195 197 207 203 196 199 206 214 217 216 217 213 203 203 208 210 211 209 213 218 212 209 204 190 205 210 207 206 202 198 196 203 208 216 219 219 217 218 218 220 233 229 226
206 204 205 215 231 228 215 181 164 255 259 97 227 244 277 251 260 239 241 239 235 219 220 225 225 223 216 214 216 214 216 221 224 228 215 200 198 195 196 199 202 202 205 197 196 202 205 206 203 201 202 203 201 201 192 188 204 210 209 208 209 212 219 222 219 219 218 214 211 208 213 212 214 216 216 216 213 193 198 207 209 209 209 207 203 208 208 219 216 209 208 212 222 214 211 234 235
218 132 168 198 211 202 213 221 242 268 319 149 208 246 278 273 249 260 251 242 243 240 228 226 231 227 222 216 211 212 213 214 207 212 212 208 202 192 197 202 201 207 200 188 199 203 204 204 200 200 201 203 202 199 196 194 202 207 210 214 216 218 218 222 216 220 221 224 222 216 215 213 210 213 212 212 213 205 196 205 208 209 212 214 208 212 211 211 217 212 207 202 212 217 211 224 227
169 128 165 187 207 226 224 220 250 272 3 278 218 195 267 253 254 236 241 253 245 238 234 232 230 232 230 225 217 208 209 210 208 205 206 201 204 203 204 201 205 205 196 197 199 199 200 201 201 201 203 202 203 198 197 197 199 202 204 209 216 221 223 222 220 219 215 218 227 223 219 217 213 212 212 212 211 213 204 209 207 206 209 212 204 208 205 207 211 213 200 200 211 216 219 216 226
50 159 108 116 122 124 182 223 244 257 258 256 237 190 251 271 241 240 213 227 238 236 239 238 232 221 219 224 223 214 208 207 213 214 211 199 199 204 204 200 195 198 197 199 198 195 196 194 198 201 205 204 200 200 200 203 199 198 204 208 213 217 214 220 218 220 222 215 220 223 221 219 219 209 211 210 210 211 205 198 207 207 201 200 204 207 203 203 207 210 211 204 206 213 209 208 215
130 112 107 113 119 133 108 139 19 310 258 253 228 231 226 289 233 216 210 222 224 241 246 241 232 224 221 221 221 214 208 204 192 206 211 201 186 185 181 195 201 191 188 193 195 195 194 197 200 203 207 207 205 205 203 205 207 204 207 209 211 212 210 207 208 218 216 210 216 221 222 222 215 211 207 207 209 204 204 194 204 208 206 201 205 208 209 206 198 196 201 206 206 208 205 207 202
149 142 136 124 107 126 148 141 172 228 256 324 222 226 196 242 176 198 223 240 211 236 249 244 231 224 217 215 217 219 214 209 199 192 196 185 164 166 173 196 200 196 179 190 195 196 201 202 203 208 211 210 209 208 206 207 208 210 211 214 219 215 210 206 209 213 212 215 213 215 214 218 216 207 206 206 212 208 206 202 202 208 205 201 204 201 202 206 200 192 194 200 203 200 207 214 205
176 165 165 185 181 152 204 163 200 215 243 81 28 154 220 237 246 273 251 245 221 232 249 252 245 238 228 218 217 220 219 216 205 163 156 161 171 174 188 202 194 196 197 194 196 197 203 206 206 210 215 211 211 208 210 211 210 213 215 216 220 218 218 215 215 215 211 215 213 212 208 211 210 208 206 205 209 203 201 202 204 206 206 200 192 195 197 200 203 205 209 209 208 203 204 206 193
189 188 178 185 183 175 206 192 230 273 208 125 149 315 266 277 288 242 240 249 245 235 231 243 247 253 254 272 150 96 35 46 48 73 103 144 167 185 196 197 197 197 199 198 196 194 198 204 209 212 219 214 211 212 212 212 215 216 217 218 221 219 221 223 224 222 215 219 222 212 207 208 207 212 211 211 208 207 208 209 209 208 204 201 200 199 198 198 198 202 202 206 206 199 196 201 202
193 196 199 199 170 167 195 195 202 218 249 120 161 130 241 212 249 352 274 266 269 263 277 270 260 256 262 40 269 336 330 7 98 153 191 200 196 187 185 186 189 193 196 194 195 199 197 207 211 215 221 216 213 212 212 214 214 215 215 220 225 227 228 220 225 228 225 220 223 220 211 211 213 213 219 216 203 200 203 206 212 206 204 202 198 201 200 198 196 202 197 197 195 195 196 190 196
175 176 164 198 210 198 215 212 226 216 155 183 191 226 247 232 354 299 261 258 253 248 247 241 252 246 210 203 220 228 233 223 187 194 203 204 185 176 181 191 197 199 195 191 198 199 200 209 212 218 220 219 216 214 215 215 216 214 214 215 221 224 225 225 226 227 231 231 226 223 218 222 220 218 218 207 196 200 207 210 210 209 207 207 203 203 200 197 191 200 202 194 195 187 190 186 187
171 167 205 184 356 214 210 72 144 49 315 258 189 255 261 274 272 258 253 252 246 232 231 236 241 240 222 216 198 185 200 207 190 192 195 184 169 184 194 195 196 193 196 203 202 201 205 206 211 216 220 220 218 214 216 216 218 216 215 214 215 217 223 222 224 232 233 234 231 223 222 221 219 217 217 193 198 203 210 211 209 205 210 207 204 201 201 195 190 194 201 193 187 179 177 179 175
144 202 184 113 32 5 214 215 133 227 248 254 187 228 255 233 283 209 221 225 233 221 226 234 241 235 227 212 178 172 195 207 205 200 177 160 175 182 183 190 202 199 193 191 194 192 203 208 209 210 212 213 214 214 213 213 214 217 217 215 216 215 217 219 221 229 231 230 230 228 223 219 215 211 211 189 197 206 208 205 206 204 206 203 198 192 193 192 192 196 196 195 182 161 174 177 180
200 168 131 158 172 206 193 197 223 209 220 247 237 238 244 237 248 123 172 220 229 230 230 229 230 227 230 219 200 194 193 178 194 204 175 163 168 176 180 190 181 169 145 133 150 167 192 211 219 220 220 219 219 216 218 217 216 214 216 216 215 215 218 220 219 220 224 226 224 222 221 214 198 197 203 195 199 208 203 198 198 198 195 195 192 189 189 193 193 198 194 192 172 169 178 179 174
354 137 178 209 257 215 183 200 266 223 248 237 250 191 255 214 240 240 250 217 222 227 229 223 218 235 231 223 218 191 161 177 178 160 135 122 118 144 151 152 158 143 139 141 174 199 211 209 213 225 237 239 232 227 222 223 219 219 217 219 221 222 222 223 224 223 222 225 223 218 218 203 194 188 197 203 201 206 197 191 191 191 193 194 194 192 188 190 188 193 180 176 174 172 173 171 166
172 185 186 185 211 5 252 213 215 221 235 241 273 263 243 252 268 231 230 238 221 216 225 217 203 207 210 229 169 124 126 132 126 117 112 111 128 162 151 143 140 145 133 105 203 203 210 197 210 216 220 221 226 228 230 232 231 226 222 220 220 222 226 225 227 226 227 227 227 222 216 191 187 196 191 201 198 199 197 197 195 197 195 195 195 195 187 179 178 178 172 172 167 172 171 163 159
181 189 188 180 176 174 179 218 205 214 229 242 230 248 247 136 212 161 254 298 332 20 2 136 101 126 91 346 62 78 117 115 110 116 117 133 143 156 145 139 135 162 150 163 150 181 205 212 219 212 216 221 217 218 219 226 227 232 228 225 226 227 228 228 227 227 227 227 227 216 207 204 207 198 194 199 197 195 198 201 202 199 199 197 196 193 177 167 168 166 162 161 164 166 165 160 160